| time (UTC) | temp F | wind direction | speed knots | gust knots | rain 1hr in | rain 24hr in | rain mn in | humidity % | barometer mb |
| 20260906060857 | 69 | 0 | 0.0 | 0.0 | 0.00 | 0.00 | 0.00 | 1013.7 | |
| 20260906060356 | 69 | 0 | 0.0 | 0.0 | 0.00 | 0.00 | 0.00 | 1013.8 | |
| 20260906055856 | 70 | 0 | 0.0 | 0.0 | 0.00 | 0.00 | 0.00 | 1013.8 | |
| 20260906055356 | 70 | 0 | 0.0 | 0.0 | 0.00 | 0.00 | 0.00 | 1013.8 | |
| 20260906054349 | 70 | 0 | 0.0 | 0.0 | 0.00 | 0.00 | 0.00 | 1013.9 | |
| 20260906053848 | 70 | 0 | 0.0 | 0.0 | 0.00 | 0.00 | 0.00 | 1013.9 | |
| 20260906053348 | 71 | 0 | 0.0 | 0.0 | 0.00 | 0.00 | 0.00 | 1013.9 | |
| 20260906052348 | 72 | 0 | 0.0 | 0.0 | 0.00 | 0.00 | 0.00 | 1014.0 | |
| 20260906051848 | 70 | 0 | 0.0 | 0.0 | 0.00 | 0.00 | 0.00 | 1014.0 | |
| 20260906051348 | 70 | 0 | 0.0 | 0.0 | 0.00 | 0.00 | 0.00 | 1014.0 | |
| 20260906050845 | 70 | 0 | 0.0 | 0.0 | 0.00 | 0.00 | 0.00 | 1014.0 | |
| 20260906050345 | 69 | 0 | 0.0 | 0.0 | 0.00 | 0.00 | 0.00 | 1014.0 | |
| 20260906045844 | 71 | 0 | 0.0 | 0.0 | 0.00 | 0.00 | 0.00 | 1013.9 | |
| 20260906044844 | 71 | 0 | 0.0 | 0.0 | 0.00 | 0.00 | 0.00 | 1014.0 | |
| 20260906044344 | 71 | 0 | 0.0 | 0.0 | 0.00 | 0.00 | 0.00 | 1014.0 | |
| 20260906043843 | 71 | 0 | 0.0 | 0.0 | 0.00 | 0.00 | 0.00 | 1014.2 | |
| 20260906043344 | 71 | 0 | 0.0 | 0.0 | 0.00 | 0.00 | 0.00 | 1014.3 | |
| 20260906042843 | 71 | 0 | 0.0 | 0.0 | 0.00 | 0.00 | 0.00 | 1014.3 | |
| 20260906041342 | 72 | 0 | 0.0 | 0.0 | 0.00 | 0.00 | 0.00 | 1014.0 | |
| 20260906040843 | 71 | 0 | 0.0 | 0.0 | 0.00 | 0.00 | 0.00 | 1013.9 | |
| 20260906040342 | 71 | 0 | 0.0 | 0.0 | 0.00 | 0.00 | 0.00 | 1013.8 | |
| 20260906035841 | 72 | 0 | 0.0 | 0.0 | 0.00 | 0.00 | 0.00 | 1013.7 | |
| 20260906034340 | 73 | 0 | 0.0 | 0.0 | 0.00 | 0.00 | 0.00 | 1013.6 | |
| 20260906033840 | 73 | 0 | 0.0 | 0.0 | 0.00 | 0.00 | 0.00 | 1013.6 | |
| 20260906033340 | 72 | 0 | 0.0 | 0.0 | 0.00 | 0.00 | 0.00 | 1013.5 | |
| 20260906032339 | 74 | 0 | 0.0 | 0.0 | 0.00 | 0.00 | 0.00 | 1013.6 | |
| 20260906031838 | 73 | 0 | 0.0 | 0.0 | 0.00 | 0.00 | 0.00 | 1013.7 | |
| 20260906031338 | 73 | 0 | 0.0 | 0.0 | 0.00 | 0.00 | 0.00 | 1013.7 | |
| 20260906030838 | 72 | 0 | 0.0 | 0.0 | 0.00 | 0.00 | 0.00 | 1013.9 | |
| 20260906030337 | 73 | 0 | 0.0 | 0.0 | 0.00 | 0.00 | 0.00 | 1014.0 | |
| 20260906025337 | 74 | 0 | 0.0 | 0.0 | 0.00 | 0.00 | 0.00 | 1014.1 | |
| 20260906024837 | 74 | 0 | 0.0 | 0.0 | 0.00 | 0.00 | 0.00 | 1014.0 | |
| 20260906023836 | 72 | 0 | 0.0 | 0.0 | 0.00 | 0.00 | 0.00 | 1013.9 | |
| 20260906023336 | 74 | 0 | 0.0 | 0.0 | 0.00 | 0.00 | 0.00 | 1013.9 | |
| 20260906022835 | 73 | 0 | 0.0 | 0.0 | 0.00 | 0.00 | 0.00 | 1013.8 | |
| 20260906022335 | 73 | 0 | 0.0 | 0.0 | 0.00 | 0.00 | 0.00 | 1013.7 | |
| 20260906021835 | 74 | 0 | 0.0 | 0.0 | 0.00 | 0.00 | 0.00 | 100 | 1013.6 |
| 20260906021335 | 74 | 0 | 0.0 | 0.0 | 0.00 | 0.00 | 0.00 | 100 | 1013.5 |
| 20260906020834 | 75 | 0 | 0.0 | 0.0 | 0.00 | 0.00 | 0.00 | 100 | 1013.7 |
| 20260906020334 | 75 | 0 | 0.0 | 0.0 | 0.00 | 0.00 | 0.00 | 100 | 1013.6 |
| 20260906015834 | 75 | 0 | 0.0 | 0.0 | 0.00 | 0.00 | 0.00 | 100 | 1013.7 |
| 20260906015333 | 75 | 0 | 0.0 | 0.0 | 0.00 | 0.00 | 0.00 | 100 | 1013.6 |
| 20260906014833 | 74 | 0 | 0.0 | 0.0 | 0.00 | 0.00 | 0.00 | 100 | 1013.6 |
| 20260906014333 | 74 | 0 | 0.0 | 0.0 | 0.00 | 0.00 | 0.00 | 100 | 1013.5 |
| 20260906013332 | 74 | 0 | 0.0 | 0.0 | 0.00 | 0.00 | 0.00 | 100 | 1013.4 |
| 20260906012832 | 74 | 0 | 0.0 | 0.0 | 0.00 | 0.00 | 0.00 | 100 | 1013.2 |
| 20260906012332 | 75 | 0 | 0.0 | 0.0 | 0.00 | 0.00 | 0.00 | 100 | 1013.0 |
| 20260906011832 | 75 | 0 | 0.0 | 0.0 | 0.00 | 0.00 | 0.00 | 100 | 1013.0 |
| 20260906011331 | 75 | 0 | 0.0 | 0.0 | 0.00 | 0.00 | 0.00 | 100 | 1013.0 |
| 20260906010831 | 76 | 0 | 0.0 | 0.0 | 0.00 | 0.00 | 0.00 | 100 | 1013.0 |
| 20260906010331 | 75 | 0 | 0.0 | 0.0 | 0.00 | 0.00 | 0.00 | 100 | 1013.0 |
| 20260906005830 | 76 | 0 | 0.0 | 0.0 | 0.00 | 0.00 | 0.00 | 100 | 1012.9 |
| 20260906005330 | 76 | 0 | 0.0 | 0.0 | 0.00 | 0.00 | 0.00 | 100 | 1012.8 |
| 20260906004830 | 76 | 0 | 0.0 | 0.0 | 0.00 | 0.00 | 0.00 | 100 | 1012.6 |
| 20260906004330 | 76 | 0 | 0.0 | 0.0 | 0.00 | 0.00 | 0.00 | 100 | 1012.7 |
| 20260906003829 | 76 | 0 | 0.0 | 0.0 | 0.00 | 0.00 | 0.00 | 100 | 1012.7 |
| 20260906002829 | 77 | 0 | 0.0 | 0.0 | 0.00 | 0.00 | 0.00 | 100 | 1012.8 |
| 20260906002328 | 77 | 0 | 0.0 | 0.0 | 0.00 | 0.00 | 0.00 | 100 | 1012.8 |
| 20260906001828 | 78 | 0 | 0.0 | 0.0 | 0.00 | 0.00 | 0.00 | 100 | 1013.0 |
| 20260906001328 | 79 | 0 | 0.0 | 0.0 | 0.00 | 0.00 | 0.00 | 100 | 1013.0 |
| 20260906000828 | 79 | 0 | 0.0 | 0.0 | 0.00 | 0.00 | 0.00 | 100 | 1013.0 |
| 20260906000327 | 80 | 0 | 0.0 | 0.0 | 0.00 | 0.00 | 0.00 | 100 | 1013.0 |
| 20260905235327 | 81 | 0 | 0.0 | 0.0 | 0.00 | 0.00 | 0.00 | 83 | 1013.2 |
| 20260905234326 | 84 | 0 | 0.0 | 0.0 | 0.00 | 0.00 | 0.00 | 75 | 1013.2 |
| 20260905233827 | 83 | 0 | 0.0 | 0.0 | 0.00 | 0.00 | 0.00 | 72 | 1013.3 |
| 20260905231323 | 85 | 0 | 0.0 | 0.0 | 0.00 | 0.00 | 0.00 | 63 | 1013.2 |
| 20260905230322 | 87 | 0 | 0.0 | 0.0 | 0.00 | 0.00 | 0.00 | 61 | 1013.2 |
| 20260905225823 | 87 | 330 | 0.0 | 2.6 | 0.00 | 0.00 | 0.00 | 58 | 1013.2 |
| 20260905225322 | 90 | 325 | 0.0 | 2.6 | 0.00 | 0.00 | 0.00 | 53 | 1013.2 |
| 20260905224821 | 91 | 15 | 0.0 | 1.7 | 0.00 | 0.00 | 0.00 | 50 | 1013.2 |
| 20260905224321 | 91 | 0 | 0.0 | 0.0 | 0.00 | 0.00 | 0.00 | 49 | 1013.0 |
| 20260905223821 | 90 | 276 | 0.0 | 1.7 | 0.00 | 0.00 | 0.00 | 49 | 1013.2 |
| 20260905222819 | 91 | 328 | 0.9 | 3.5 | 0.00 | 0.00 | 0.00 | 49 | 1013.3 |
| 20260905221818 | 90 | 315 | 1.7 | 5.2 | 0.00 | 0.00 | 0.00 | 47 | 1013.2 |
| 20260905220818 | 90 | 342 | 0.0 | 1.7 | 0.00 | 0.00 | 0.00 | 46 | 1013.3 |
| 20260905220317 | 89 | 332 | 0.0 | 2.6 | 0.00 | 0.00 | 0.00 | 49 | 1013.3 |
| 20260905215818 | 92 | 329 | 1.7 | 7.0 | 0.00 | 0.00 | 0.00 | 46 | 1013.3 |
| 20260905215318 | 91 | 349 | 4.3 | 7.8 | 0.00 | 0.00 | 0.00 | 44 | 1013.3 |
| 20260905214317 | 92 | 311 | 0.9 | 4.3 | 0.00 | 0.00 | 0.00 | 45 | 1013.4 |
| 20260905213817 | 93 | 323 | 1.7 | 5.2 | 0.00 | 0.00 | 0.00 | 42 | 1013.2 |
| 20260905212815 | 95 | 257 | 0.0 | 0.9 | 0.00 | 0.00 | 0.00 | 42 | 1013.2 |
| 20260905212314 | 94 | 326 | 2.6 | 7.8 | 0.00 | 0.00 | 0.00 | 41 | 1013.2 |
| 20260905211314 | 94 | 333 | 2.6 | 5.2 | 0.00 | 0.00 | 0.00 | 44 | 1012.9 |
| 20260905210313 | 91 | 259 | 3.5 | 6.1 | 0.00 | 0.00 | 0.00 | 46 | 1012.9 |
| 20260905205313 | 91 | 347 | 3.5 | 8.7 | 0.00 | 0.00 | 0.00 | 45 | 1012.9 |
| 20260905204812 | 92 | 332 | 3.5 | 7.0 | 0.00 | 0.00 | 0.00 | 46 | 1013.0 |
| 20260905204312 | 91 | 285 | 3.5 | 7.8 | 0.00 | 0.00 | 0.00 | 48 | 1013.0 |
| 20260905202811 | 92 | 328 | 2.6 | 5.2 | 0.00 | 0.00 | 0.00 | 47 | 1013.2 |
| 20260905202310 | 92 | 262 | 5.2 | 8.7 | 0.00 | 0.00 | 0.00 | 48 | 1013.3 |
| 20260905201810 | 91 | 263 | 4.3 | 7.8 | 0.00 | 0.00 | 0.00 | 47 | 1013.5 |
| 20260905201310 | 90 | 278 | 5.2 | 9.6 | 0.00 | 0.00 | 0.00 | 49 | 1013.6 |
| 20260905200309 | 89 | 323 | 5.2 | 8.7 | 0.00 | 0.00 | 0.00 | 48 | 1013.8 |
| 20260905195308 | 91 | 301 | 4.3 | 7.8 | 0.00 | 0.00 | 0.00 | 47 | 1013.9 |
| 20260905194307 | 91 | 263 | 1.7 | 5.2 | 0.00 | 0.00 | 0.00 | 49 | 1014.1 |
| 20260905193807 | 91 | 263 | 2.6 | 6.1 | 0.00 | 0.00 | 0.00 | 49 | 1014.1 |
| 20260905193307 | 91 | 284 | 0.9 | 5.2 | 0.00 | 0.00 | 0.00 | 48 | 1014.2 |
| 20260905192806 | 90 | 312 | 2.6 | 6.1 | 0.00 | 0.00 | 0.00 | 50 | 1014.3 |
| 20260905192306 | 90 | 242 | 0.9 | 3.5 | 0.00 | 0.00 | 0.00 | 51 | 1014.4 |
| 20260905191806 | 91 | 278 | 1.7 | 5.2 | 0.00 | 0.00 | 0.00 | 53 | 1014.4 |
| 20260905191305 | 89 | 250 | 0.9 | 4.3 | 0.00 | 0.00 | 0.00 | 51 | 1014.5 |
| 20260905190805 | 91 | 211 | 1.7 | 4.3 | 0.00 | 0.00 | 0.00 | 49 | 1014.6 |
| 20260905190305 | 90 | 211 | 0.9 | 3.5 | 0.00 | 0.00 | 0.00 | 47 | 1014.7 |
| 20260905185804 | 87 | 263 | 1.7 | 5.2 | 0.00 | 0.00 | 0.00 | 53 | 1014.8 |
| 20260905185306 | 89 | 240 | 0.9 | 3.5 | 0.00 | 0.00 | 0.00 | 51 | 1015.0 |
| 20260905184802 | 90 | 195 | 0.9 | 4.3 | 0.00 | 0.00 | 0.00 | 53 | 1015.0 |
| 20260905184302 | 89 | 277 | 2.6 | 6.1 | 0.00 | 0.00 | 0.00 | 55 | 1015.1 |
| 20260905183302 | 89 | 218 | 0.9 | 4.3 | 0.00 | 0.00 | 0.00 | 50 | 1015.2 |
| 20260905182801 | 90 | 259 | 1.7 | 5.2 | 0.00 | 0.00 | 0.00 | 52 | 1015.3 |
| 20260905182301 | 90 | 117 | 0.9 | 3.5 | 0.00 | 0.00 | 0.00 | 51 | 1015.4 |
| 20260905181801 | 87 | 260 | 0.9 | 4.3 | 0.00 | 0.00 | 0.00 | 53 | 1015.7 |
| 20260905181300 | 90 | 167 | 0.9 | 4.3 | 0.00 | 0.00 | 0.00 | 50 | 1015.8 |
| 20260905180300 | 89 | 201 | 2.6 | 5.2 | 0.00 | 0.00 | 0.00 | 55 | 1015.8 |
| 20260905175800 | 87 | 253 | 1.7 | 6.1 | 0.00 | 0.00 | 0.00 | 58 | 1015.8 |
| 20260905174759 | 88 | 243 | 2.6 | 5.2 | 0.00 | 0.00 | 0.00 | 60 | 1015.9 |
| 20260905174300 | 86 | 225 | 1.7 | 6.1 | 0.00 | 0.00 | 0.00 | 63 | 1016.0 |
| 20260905173259 | 85 | 108 | 3.5 | 6.1 | 0.00 | 0.00 | 0.00 | 61 | 1016.2 |
| 20260905172758 | 85 | 118 | 4.3 | 7.8 | 0.00 | 0.00 | 0.00 | 66 | 1016.2 |
| 20260905172258 | 84 | 214 | 4.3 | 7.8 | 0.00 | 0.00 | 0.00 | 66 | 1016.2 |
| 20260905171757 | 86 | 108 | 2.6 | 5.2 | 0.00 | 0.00 | 0.00 | 74 | 1016.2 |
| 20260905171257 | 86 | 136 | 3.5 | 7.0 | 0.00 | 0.00 | 0.00 | 72 | 1016.4 |
| 20260905170757 | 85 | 101 | 4.3 | 7.8 | 0.00 | 0.00 | 0.00 | 70 | 1016.4 |
| 20260905170256 | 84 | 98 | 5.2 | 8.7 | 0.00 | 0.00 | 0.00 | 72 | 1016.5 |
| 20260905165756 | 83 | 103 | 4.3 | 7.8 | 0.00 | 0.00 | 0.00 | 77 | 1016.6 |
| 20260905165256 | 83 | 141 | 4.3 | 7.8 | 0.00 | 0.00 | 0.00 | 79 | 1016.8 |
| 20260905164756 | 82 | 103 | 7.0 | 10.4 | 0.00 | 0.00 | 0.00 | 79 | 1016.9 |
| 20260905164255 | 84 | 80 | 4.3 | 8.7 | 0.00 | 0.00 | 0.00 | 78 | 1016.9 |
| 20260905163755 | 82 | 135 | 6.1 | 8.7 | 0.00 | 0.00 | 0.00 | 83 | 1016.9 |
| 20260905163255 | 83 | 121 | 5.2 | 8.7 | 0.00 | 0.00 | 0.00 | 84 | 1016.9 |
| 20260905162755 | 82 | 118 | 6.1 | 11.3 | 0.00 | 0.00 | 0.00 | 84 | 1017.0 |
| 20260905162254 | 81 | 150 | 5.2 | 13.0 | 0.00 | 0.00 | 0.00 | 86 | 1017.0 |
| 20260905161754 | 81 | 125 | 6.1 | 9.6 | 0.00 | 0.00 | 0.00 | 87 | 1017.0 |
| 20260905155751 | 81 | 117 | 7.0 | 11.3 | 0.00 | 0.00 | 0.00 | 95 | 1016.9 |
| 20260905155251 | 79 | 149 | 4.3 | 9.6 | 0.00 | 0.00 | 0.00 | 97 | 1016.9 |
| 20260905154250 | 80 | 115 | 4.3 | 10.4 | 0.00 | 0.00 | 0.00 | 100 | 1017.0 |
| 20260905153750 | 78 | 131 | 3.5 | 8.7 | 0.00 | 0.00 | 0.00 | 100 | 1017.1 |
| 20260905153250 | 78 | 121 | 4.3 | 9.6 | 0.00 | 0.00 | 0.00 | 100 | 1017.2 |
| 20260905152750 | 77 | 117 | 3.5 | 7.8 | 0.00 | 0.00 | 0.00 | 100 | 1017.2 |
| 20260905152249 | 77 | 55 | 2.6 | 6.1 | 0.00 | 0.00 | 0.00 | 100 | 1017.2 |
| 20260905151748 | 78 | 118 | 2.6 | 6.1 | 0.00 | 0.00 | 0.00 | 100 | 1017.2 |
| 20260905151248 | 78 | 124 | 4.3 | 10.4 | 0.00 | 0.00 | 0.00 | 100 | 1017.0 |
| 20260905150748 | 75 | 115 | 2.6 | 6.1 | 0.00 | 0.00 | 0.00 | 100 | 1017.2 |
| 20260905144747 | 75 | 55 | 0.9 | 5.2 | 0.00 | 0.00 | 0.00 | 100 | 1017.4 |
| 20260905144246 | 75 | 91 | 1.7 | 6.1 | 0.00 | 0.00 | 0.00 | 100 | 1017.4 |
| 20260905143246 | 75 | 82 | 1.7 | 7.0 | 0.00 | 0.00 | 0.00 | 100 | 1017.4 |
| 20260905141746 | 74 | 46 | 0.9 | 5.2 | 0.00 | 0.00 | 0.00 | 100 | 1017.2 |
| 20260905140244 | 75 | 142 | 2.6 | 6.1 | 0.00 | 0.00 | 0.00 | 100 | 1017.4 |
| 20260905134742 | 76 | 340 | 1.7 | 5.2 | 0.00 | 0.00 | 0.00 | 100 | 1017.3 |
| 20260905134241 | 75 | 135 | 0.9 | 4.3 | 0.00 | 0.00 | 0.00 | 100 | 1016.8 |
| 20260905132739 | 74 | 322 | 2.6 | 8.7 | 0.00 | 0.00 | 0.00 | 1017.2 | |
| 20260905132239 | 74 | 319 | 4.3 | 7.8 | 0.00 | 0.00 | 0.00 | 1017.2 | |
| 20260905131740 | 75 | 330 | 0.9 | 8.7 | 0.00 | 0.00 | 0.00 | 1016.9 | |
| 20260905130238 | 74 | 0 | 0.0 | 0.0 | 0.00 | 0.00 | 0.00 | 1016.5 | |
| 20260905125738 | 73 | 0 | 0.0 | 0.0 | 0.00 | 0.00 | 0.00 | 1016.4 | |
| 20260905125237 | 74 | 0 | 0.0 | 0.0 | 0.00 | 0.00 | 0.00 | 1016.5 | |
| 20260905124737 | 73 | 0 | 0.0 | 0.0 | 0.00 | 0.00 | 0.00 | 1016.6 | |
| 20260905124235 | 72 | 0 | 0.0 | 0.0 | 0.00 | 0.00 | 0.00 | 1016.5 | |
| 20260905120732 | 68 | 0 | 0.0 | 0.0 | 0.00 | 0.00 | 0.00 | 1016.3 | |
| 20260905112728 | 66 | 0 | 0.0 | 0.0 | 0.00 | 0.00 | 0.00 | 1016.0 | |
| 20260905112226 | 67 | 0 | 0.0 | 0.0 | 0.00 | 0.00 | 0.00 | 1015.9 | |
| 20260905111226 | 67 | 0 | 0.0 | 0.0 | 0.00 | 0.00 | 0.00 | 1015.9 | |
| 20260905110223 | 67 | 0 | 0.0 | 0.0 | 0.00 | 0.00 | 0.00 | 1015.8 | |
| 20260905105723 | 68 | 0 | 0.0 | 0.0 | 0.00 | 0.00 | 0.00 | 1015.9 | |
| 20260905103716 | 68 | 0 | 0.0 | 0.0 | 0.00 | 0.00 | 0.00 | 1015.9 | |
| 20260905103212 | 67 | 0 | 0.0 | 0.0 | 0.00 | 0.00 | 0.00 | 1015.8 | |
| 20260905102712 | 68 | 0 | 0.0 | 0.0 | 0.00 | 0.00 | 0.00 | 1015.7 | |
| 20260905102211 | 67 | 0 | 0.0 | 0.0 | 0.00 | 0.00 | 0.00 | 1015.7 | |
| 20260905101711 | 67 | 0 | 0.0 | 0.0 | 0.00 | 0.00 | 0.00 | 1015.7 | |
| 20260905100711 | 67 | 0 | 0.0 | 0.0 | 0.00 | 0.00 | 0.00 | 1015.6 | |
| 20260905100210 | 68 | 0 | 0.0 | 0.0 | 0.00 | 0.00 | 0.00 | 1015.6 | |
| 20260905095206 | 66 | 0 | 0.0 | 0.0 | 0.00 | 0.00 | 0.00 | 1015.4 | |
| 20260905094706 | 68 | 0 | 0.0 | 0.0 | 0.00 | 0.00 | 0.00 | 1015.6 | |
| 20260905093203 | 69 | 0 | 0.0 | 0.0 | 0.00 | 0.00 | 0.00 | 1015.4 | |
| 20260905092809 | 68 | 0 | 0.0 | 0.0 | 0.00 | 0.00 | 0.00 | 1015.4 | |
| 20260905092702 | 68 | 0 | 0.0 | 0.0 | 0.00 | 0.00 | 0.00 | 1015.4 | |
| 20260905090201 | 70 | 0 | 0.0 | 0.0 | 0.00 | 0.00 | 0.00 | 1015.1 | |
| 20260905085701 | 68 | 0 | 0.0 | 0.0 | 0.00 | 0.00 | 0.00 | 1015.0 | |
| 20260905085201 | 67 | 0 | 0.0 | 0.0 | 0.00 | 0.00 | 0.00 | 1015.1 | |
| 20260905083657 | 68 | 0 | 0.0 | 0.0 | 0.00 | 0.00 | 0.00 | 1015.1 | |
| 20260905083157 | 69 | 0 | 0.0 | 0.0 | 0.00 | 0.00 | 0.00 | 1015.1 | |
| 20260905082657 | 67 | 0 | 0.0 | 0.0 | 0.00 | 0.00 | 0.00 | 1015.1 | |
| 20260905081656 | 69 | 0 | 0.0 | 0.0 | 0.00 | 0.00 | 0.00 | 1015.2 | |
| 20260905080656 | 69 | 0 | 0.0 | 0.0 | 0.00 | 0.00 | 0.00 | 1015.2 | |
| 20260905080156 | 68 | 0 | 0.0 | 0.0 | 0.00 | 0.00 | 0.00 | 1015.2 | |
| 20260905075655 | 69 | 0 | 0.0 | 0.0 | 0.00 | 0.00 | 0.00 | 1015.2 | |
| 20260905075157 | 70 | 0 | 0.0 | 0.0 | 0.00 | 0.00 | 0.00 | 1015.3 | |
| 20260905073654 | 69 | 0 | 0.0 | 0.0 | 0.00 | 0.00 | 0.00 | 1015.6 | |
| 20260905073154 | 69 | 0 | 0.0 | 0.0 | 0.00 | 0.00 | 0.00 | 1015.6 | |
| 20260905072653 | 70 | 0 | 0.0 | 0.0 | 0.00 | 0.00 | 0.00 | 1015.7 | |
| 20260905071653 | 69 | 0 | 0.0 | 0.0 | 0.00 | 0.00 | 0.00 | 1015.8 | |
| 20260905070652 | 69 | 0 | 0.0 | 0.0 | 0.00 | 0.00 | 0.00 | 1015.9 | |
| 20260905065651 | 70 | 0 | 0.0 | 0.0 | 0.00 | 0.00 | 0.00 | 1016.0 | |
| 20260905065151 | 71 | 0 | 0.0 | 0.0 | 0.00 | 0.00 | 0.00 | 1016.1 | |
| 20260905064651 | 69 | 0 | 0.0 | 0.0 | 0.00 | 0.00 | 0.00 | 1016.1 | |
| 20260905063650 | 69 | 0 | 0.0 | 0.0 | 0.00 | 0.00 | 0.00 | 1016.3 | |
| 20260905063150 | 69 | 0 | 0.0 | 0.0 | 0.00 | 0.00 | 0.00 | 1016.3 | |
| 20260905062147 | 69 | 0 | 0.0 | 0.0 | 0.00 | 0.00 | 0.00 | 1016.4 |